COSMOS 2522 (752) (42939 NORAD) Tracking and Keplerian Element Data

This shows tracking and keplerian element data for the satellite.

Feedback or suggestion? Click here.




ElementValue
Catalog42939
NameCOSMOS 2522 (752)
Epoch Orbit1155
Epoch Day77.35584333
Epoch Year2019
RAAN282.8769
Inclination64.5406
Eccentricity0.0005051
Argument of Perigee253.4495
Mean Anonmoly307.394
Mean Motion2.13102108
Decay Rate5.6E-07
L11 42939U 17055A 19077.35584333 .00000056 00000-0 00000-0 0 9994
L22 42939 64.5406 282.8769 0005051 253.4495 307.3940 2.13102108 11555

Live tracking and technical data element details for COSMOS 2522 (752) (NORAD 42939). COSMOS 2522 (752) can be tracked NOW for your location showing map with azimuth and elevation plus other details from your city location.

Track the satellite on the map from your city or location and see movement details for azimuth, elevation, latitude, longitude, range, height, and movement on the map or in text.







IsCatalogInMostPopularTable: catalog: 42939, numindb: 212
Update: records affected: 1



GetName: 42939 COSMOS 2522 (752)

Hit Count: updated at: Wed, 20 Mar 2019 04:46:03 GMT